Flag for France Weather past 2 weeks in Gustavia, Saint Barthélemy, France

Now
81 °F

Sprinkles. Partly sunny.


Feels Like: 85 °F
Forecast: N/A
Wind: 8 mph from Southeast

Location: Juliana Airport - Saint Maarten

Current Time: Jul 30, 2014 at 7:30:55 PM

Latest Report: Jul 30, 2014 at 6:00 PM


Visibility: 4 mi

Pressure: 30.01 "Hg

Humidity: 79%

Dew point: 73 °F

Location of GustaviaLocation

Historic Weather in Gustavia — Graph

°F

Gustavia temperature yesterday

Maximum temperature yesterday: 86 °F (at 2:00 PM)
Minimum temperature yesterday: 79 °F (at 2:00 AM)
Average temperature yesterday: 83 °F

Past Weeks' High & Low Weather Summary

 TemperatureHumidityPressure
High88 °F (Jul 20, 2:00 PM)89% (Jul 18, 10:00 PM)30.12 "Hg (Jul 18, 10:00 PM)
Low77 °F (Jul 18, 8:00 AM)59% (Jul 20, 2:00 PM)29.98 "Hg (Jul 30, 5:00 PM)
Average83 °F71%30.07 "Hg
* Reported Jul 15 6:00 PM — Jul 30 6:00 PM, Gustavia, Weather by CustomWeather, © 2014

Note: Actual official high and low records may vary slightly from our data, if they occured in-between our weather recording intervals... More about our weather records

Advertising

Gustavia weather history for previous 24 hours

 ConditionsComfort  
Time TempWeatherWind HumidityBarometerVisibility
6:00 PM
Jul 30
81 °FSprinkles. Partly sunny.8 mph79%30.01 "Hg4 mi
5:00 PM84 °FScattered clouds.10 mph70%29.98 "HgN/A
4:00 PM84 °FPartly sunny.14 mph70%30.01 "HgN/A
3:00 PM84 °FBroken clouds.12 mph74%30.01 "HgN/A
2:00 PM84 °FSprinkles. Broken clouds.12 mph74%30.01 "Hg4 mi
1:00 PM82 °FSprinkles. Scattered clouds.16 mph79%30.04 "HgN/A
12:00 PM84 °FSprinkles. Scattered clouds.10 mph70%30.04 "HgN/A
11:00 AM84 °FPassing clouds.13 mph70%30.04 "HgN/A
10:00 AM84 °FScattered clouds.13 mph70%30.07 "HgN/A
9:00 AM82 °FScattered clouds.12 mph74%30.07 "HgN/A
8:00 AM82 °FScattered clouds.8 mph74%30.04 "HgN/A
7:00 AM82 °FPassing clouds.8 mph70%30.04 "HgN/A
6:00 AM81 °FPassing clouds.7 mph74%30.04 "HgN/A
5:00 AM81 °FPassing clouds.7 mph74%30.04 "HgN/A
4:00 AM81 °FPassing clouds.7 mph74%30.01 "HgN/A
3:00 AM81 °FScattered showers. Passing clouds.10 mph74%30.01 "HgN/A
2:00 AM81 °FPassing clouds.12 mph74%30.04 "HgN/A
1:00 AM81 °FPassing clouds.9 mph74%30.04 "HgN/A
12:00 AM82 °FPassing clouds.12 mph66%30.07 "HgN/A
11:00 PM
Jul 29
82 °FPassing clouds.8 mph70%30.07 "HgN/A
10:00 PM82 °FPassing clouds.8 mph70%30.07 "HgN/A
9:00 PM82 °FPassing clouds.10 mph70%30.04 "HgN/A
8:00 PM82 °FPassing clouds.9 mph66%30.04 "HgN/A
7:00 PM82 °FPassing clouds.9 mph66%30.04 "HgN/A
Weather by CustomWeather, © 2014

See weather overviewHow to use our weather pages